Lid_Strength_Index
6 5 4 4 5 6 8 10 11 11 12 12 12 12 12 12 12 12 12 12 13 14 14 14 14 13 13 13 13 13 13 14 15 14 13 12 12 12 11 10 10 10 10
7 7 7 7 7 8 9 11 12 13 13 12 12 12 13 13 12 12 13 13 14 14 14 14 14 14 14 14 13 14 14 13 14 16 14 13 12 11 11 11 11 11 11
9 8 9 9 8 9 11 13 13 13 14 13 13 13 13 13 13 13 13 14 14 15 14 14 15 15 15 14 14 14 14 14 13 14 14 12 12 11 11 11 11 11 11
10 10 10 11 10 11 12 14 14 14 14 13 13 13 13 13 13 14 14 15 15 15 14 14 15 14 14 14 14 14 14 14 14 14 14 13 12 12 11 12 13 12 12
11 10 11 11 12 13 14 14 14 14 14 13 14 14 13 13 14 14 15 15 15 15 14 15 14 14 13 13 13 13 13 13 13 14 14 13 13 13 13 13 14 13 12
11 11 13 13 13 14 15 15 15 15 14 14 14 14 14 15 13 13 14 15 15 15 15 15 14 14 13 13 13 12 13 13 13 13 13 14 14 13 12 14 14 15 15
12 14 14 14 14 15 15 15 15 15 14 14 15 15 15 14 12 13 14 15 15 15 15 14 14 14 13 13 13 13 13 12 11 12 13 13 13 12 13 15 14 15 14
14 14 14 14 14 15 15 16 16 15 15 16 16 15 15 14 12 13 14 14 15 14 14 13 13 13 13 13 13 13 13 13 12 12 12 12 11 11 12 13 14 15 14
13 14 14 14 14 14 15 16 15 16 16 16 16 16 15 14 12 13 14 15 15 14 13 13 13 13 13 12 13 15 14 13 11 11 11 11 11 11 11 13 13 14 14
13 13 14 14 15 15 15 15 16 15 16 16 16 16 16 15 13 13 13 14 15 14 13 13 14 13 12 12 14 13 14 13 14 12 12 12 13 13 11 12 12 14 15
13 13 14 14 14 14 15 16 16 16 16 17 17 17 17 17 15 13 12 14 14 14 14 14 14 13 12 12 12 12 13 12 12 12 12 13 12 12 12 11 12 12 14
14 14 14 15 15 15 15 16 16 16 17 18 18 19 18 17 16 13 12 12 12 14 14 14 14 13 13 12 12 12 11 12 13 14 13 12 11 10 10 11 11 11 10
15 15 15 15 15 15 16 17 17 17 17 18 18 18 19 18 17 14 13 12 12 14 14 14 13 13 12 12 13 13 15 14 13 14 14 13 11 10 11 12 12 13 10
15 15 16 16 16 16 16 16 17 17 18 18 18 18 18 18 18 17 15 14 14 13 14 14 14 13 13 14 17 16 16 15 13 12 13 13 13 13 12 12 12 12 12
15 16 16 16 16 17 16 17 17 16 16 17 17 17 18 18 17 16 16 17 17 16 17 17 16 18 18 18 18 18 17 17 16 14 14 14 14 14 13 12 13 13 13
17 17 16 16 16 17 18 18 16 16 15 15 15 15 17 16 15 15 14 14 14 14 17 18 19 20 20 19 20 19 18 18 16 15 15 15 15 15 14 13 13 13 13
16 17 16 17 17 17 18 18 19 17 15 15 15 15 15 15 15 14 14 13 13 15 19 21 21 21 21 21 21 20 19 18 18 17 16 16 15 15 15 14 13 13 13
18 17 16 16 17 17 17 17 17 18 19 18 14 14 14 15 14 14 13 14 18 21 22 22 22 23 23 22 21 21 21 20 19 18 17 17 18 17 16 15 15 15 15
16 16 16 16 16 16 17 17 17 18 17 18 20 15 15 14 14 14 13 19 19 22 24 25 25 25 24 23 23 23 23 21 20 20 19 19 19 19 18 17 16 17 17
18 18 17 17 17 17 17 17 18 17 17 19 20 18 21 18 17 16 16 22 23 23 25 25 26 26 25 25 25 24 23 23 22 21 20 20 20 20 19 19 18 18 17
19 18 17 16 17 16 17 17 18 17 17 18 19 19 18 19 18 19 21 24 24 24 24 25 26 26 26 26 26 25 25 23 23 23 22 21 21 21 20 19 19 19 19
21 19 17 17 17 17 17 17 17 17 17 18 19 21 16 20 20 21 22 23 25 25 25 25 26 26 26 26 25 25 25 24 24 23 22 23 22 21 21 20 20 19 19
22 22 20 20 19 20 21 21 20 19 19 19 20 21 19 17 20 21 22 24 25 26 27 28 26 27 27 27 26 24 24 24 23 24 23 23 23 22 22 21 21 20 20
24 24 21 22 21 21 21 21 21 21 22 22 22 21 21 21 21 22 23 25 26 27 28 27 27 25 25 26 26 26 25 24 25 24 24 24 24 23 22 22 21 21 20
25 24 21 20 20 21 21 21 21 21 22 21 23 21 22 21 22 22 23 24 25 26 27 27 27 25 24 24 24 26 27 23 24 25 25 24 24 24 23 22 22 21 21
24 23 22 21 20 20 20 20 21 21 21 21 21 21 21 22 22 22 23 24 25 25 25 25 24 24 23 23 23 24 25 22 24 24 23 23 23 24 23 23 23 22 21